Flag for U.S.A. Weather past 2 weeks in Galveston, Texas, U.S.A.

Now
83 °F

Passing clouds.


Feels Like: 92 °F
Forecast: 80 / 84 °F
Wind: 5 mph from South

Location: Scholes Field

Current Time: Aug 30, 2014 at 2:00:09 PM

Latest Report: Aug 30, 2014 at 12:52 PM


Visibility: 10 mi

Pressure: 29.96 "Hg

Humidity: 82%

Dew point: 77 °F

Location of GalvestonLocation

Historic Weather in Galveston — Graph

°F

Galveston temperature yesterday

Maximum temperature yesterday: 85 °F (at 11:52 AM)
Minimum temperature yesterday: 78 °F (at 4:52 PM)
Average temperature yesterday: 82 °F

Past Weeks' High & Low Weather Summary

 TemperatureHumidityPressure
High96 °F (Aug 25, 2:52 PM)97% (Aug 19, 5:52 AM)30.11 "Hg (Aug 19, 5:52 AM)
Low75 °F (Aug 28, 9:00 AM)44% (Aug 25, 2:52 PM)29.84 "Hg (Aug 29, 4:52 PM)
Average85 °F76%29.97 "Hg
* Reported Aug 15 11:52 AM — Aug 30 11:52 AM, Galveston, Weather by CustomWeather, © 2014

Note: Actual official high and low records may vary slightly from our data, if they occured in-between our weather recording intervals... More about our weather records

Advertising

Galveston weather history for previous 24 hours

 ConditionsComfort  
Time TempWeatherWind HumidityBarometerVisibility
11:52 AM
Aug 30
83 °FPassing clouds.No wind82%29.96 "Hg10 mi
10:52 AM81 °FPartly sunny.5 mph85%29.95 "Hg10 mi
9:52 AM80 °FSunny.6 mph90%29.95 "Hg10 mi
8:52 AM79 °FSunny.8 mph88%29.91 "Hg10 mi
7:52 AM79 °FThunderstorms. Mostly cloudy.8 mph88%29.91 "Hg10 mi
7:03 AM81 °FThundershowers. Passing clouds.6 mph88%29.90 "Hg10 mi
6:52 AM80 °FPassing clouds.7 mph90%29.90 "Hg10 mi
5:52 AM77 °FLight rain. Passing clouds.No wind96%29.88 "Hg10 mi
4:52 AM77 °FThunderstorms. Fog.No wind94%29.91 "Hg3 mi
3:52 AM83 °FPassing clouds.16 mph79%29.88 "Hg10 mi
2:52 AM83 °FPassing clouds.16 mph79%29.89 "Hg10 mi
1:52 AM82 °FPartly cloudy.20 mph85%29.90 "Hg10 mi
12:52 AM82 °FPassing clouds.14 mph82%29.90 "Hg10 mi
11:59 PM
Aug 29
81 °FPassing clouds.10 mph91%29.91 "Hg10 mi
10:52 PM78 °FPartly cloudy.16 mph93%29.91 "Hg10 mi
9:52 PM80 °FPassing clouds.15 mph87%29.89 "Hg10 mi
8:52 PM79 °FLight rain. Mostly cloudy.8 mph90%29.88 "Hg10 mi
8:00 PM79 °FLight rain. Mostly cloudy.12 mph90%29.87 "Hg10 mi
6:52 PM79 °FLight rain. Partly sunny.9 mph90%29.85 "Hg8 mi
5:52 PM79 °FLight rain. Scattered clouds.9 mph90%29.85 "Hg10 mi
4:52 PM78 °FLight rain. Scattered clouds.8 mph93%29.84 "Hg10 mi
3:52 PM82 °FLight rain. Mostly cloudy.10 mph85%29.86 "Hg10 mi
Weather by CustomWeather, © 2014

See weather overviewHow to use our weather pages